| time (UTC) | temp F | wind direction | speed MPH | gust MPH | rain 1hr in | rain 24hr in | rain mn in | humidity % | barometer mb |
| 20260905234525 | 79 | 154 | 3.0 | 0.0 | 0.00 | 0.00 | 0.01 | 56 | 1010.6 |
| 20260905234025 | 79 | 205 | 3.0 | 0.0 | 0.00 | 0.00 | 0.01 | 52 | 1010.7 |
| 20260905233525 | 78 | 170 | 3.0 | 0.0 | 0.00 | 0.00 | 0.01 | 53 | 1010.7 |
| 20260905233025 | 78 | 181 | 3.0 | 0.0 | 0.00 | 0.00 | 0.01 | 51 | 1010.7 |
| 20260905232525 | 78 | 207 | 3.0 | 0.0 | 0.00 | 0.00 | 0.01 | 54 | 1010.5 |
| 20260905232025 | 79 | 183 | 3.0 | 0.0 | 0.00 | 0.00 | 0.01 | 55 | 1010.5 |
| 20260905231525 | 79 | 173 | 2.0 | 0.0 | 0.00 | 0.00 | 0.01 | 53 | 1010.5 |
| 20260905231025 | 79 | 141 | 2.0 | 0.0 | 0.00 | 0.00 | 0.01 | 52 | 1010.6 |
| 20260905230524 | 79 | 186 | 2.0 | 0.0 | 0.00 | 0.00 | 0.01 | 50 | 1010.6 |
| 20260905230031 | 79 | 176 | 2.0 | 0.0 | 0.00 | 0.00 | 0.01 | 53 | 1010.6 |
| 20260905225526 | 79 | 169 | 2.0 | 0.0 | 0.00 | 0.00 | 0.01 | 51 | 1010.7 |
| 20260905225023 | 80 | 144 | 2.0 | 0.0 | 0.00 | 0.00 | 0.01 | 57 | 1010.7 |
| 20260905224523 | 80 | 148 | 3.0 | 0.0 | 0.00 | 0.00 | 0.01 | 51 | 1010.7 |
| 20260905224022 | 81 | 182 | 2.0 | 0.0 | 0.00 | 0.00 | 0.01 | 51 | 1010.9 |
| 20260905223522 | 80 | 169 | 2.0 | 0.0 | 0.00 | 0.00 | 0.01 | 50 | 1010.9 |
| 20260905223021 | 79 | 206 | 2.0 | 0.0 | 0.00 | 0.00 | 0.01 | 49 | 1010.9 |
| 20260905222522 | 79 | 170 | 2.0 | 0.0 | 0.00 | 0.00 | 0.01 | 51 | 1011.1 |
| 20260905222021 | 79 | 195 | 2.0 | 0.0 | 0.00 | 0.00 | 0.01 | 51 | 1011.1 |
| 20260905221520 | 79 | 152 | 2.0 | 0.0 | 0.00 | 0.00 | 0.01 | 49 | 1011.1 |
| 20260905221021 | 79 | 169 | 2.0 | 0.0 | 0.00 | 0.00 | 0.01 | 58 | 1011.1 |
| 20260905220520 | 79 | 174 | 3.0 | 0.0 | 0.00 | 0.00 | 0.01 | 56 | 1011.1 |
| 20260905220023 | 79 | 182 | 3.0 | 0.0 | 0.00 | 0.00 | 0.01 | 55 | 1011.1 |
| 20260905215520 | 79 | 170 | 3.0 | 0.0 | 0.00 | 0.00 | 0.01 | 61 | 1011.1 |
| 20260905215020 | 80 | 155 | 3.0 | 0.0 | 0.00 | 0.00 | 0.01 | 61 | 1011.1 |
| 20260905214519 | 80 | 360 | 2.0 | 0.0 | 0.00 | 0.00 | 0.01 | 49 | 1011.1 |
| 20260905214018 | 80 | 212 | 2.0 | 0.0 | 0.00 | 0.00 | 0.01 | 55 | 1011.4 |
| 20260905213517 | 79 | 201 | 3.0 | 0.0 | 0.00 | 0.00 | 0.01 | 61 | 1011.4 |
| 20260905213016 | 79 | 206 | 3.0 | 0.0 | 0.00 | 0.00 | 0.01 | 59 | 1011.4 |
| 20260905212515 | 79 | 133 | 3.0 | 0.0 | 0.00 | 0.00 | 0.01 | 61 | 1011.5 |
| 20260905212013 | 78 | 172 | 3.0 | 0.0 | 0.00 | 0.00 | 0.01 | 60 | 1011.5 |
| 20260905211539 | 78 | 157 | 3.0 | 0.0 | 0.00 | 0.00 | 0.01 | 60 | 1011.5 |
| 20260905211014 | 78 | 206 | 3.0 | 0.0 | 0.00 | 0.00 | 0.01 | 61 | 1011.6 |
| 20260905210514 | 78 | 161 | 3.0 | 0.0 | 0.00 | 0.00 | 0.01 | 64 | 1011.6 |
| 20260905210013 | 78 | 177 | 2.0 | 0.0 | 0.00 | 0.00 | 0.01 | 66 | 1011.6 |
| 20260905205513 | 78 | 211 | 2.0 | 0.0 | 0.00 | 0.00 | 0.01 | 65 | 1011.7 |
| 20260905205013 | 78 | 143 | 2.0 | 0.0 | 0.00 | 0.00 | 0.01 | 67 | 1011.7 |
| 20260905204512 | 77 | 169 | 3.0 | 0.0 | 0.00 | 0.00 | 0.01 | 69 | 1011.7 |
| 20260905204015 | 78 | 176 | 3.0 | 0.0 | 0.00 | 0.00 | 0.01 | 70 | 1011.7 |
| 20260905203511 | 78 | 153 | 3.0 | 0.0 | 0.00 | 0.00 | 0.01 | 70 | 1011.7 |
| 20260905203011 | 78 | 165 | 2.0 | 0.0 | 0.00 | 0.00 | 0.01 | 68 | 1011.7 |
| 20260905202510 | 78 | 157 | 2.0 | 0.0 | 0.00 | 0.00 | 0.01 | 67 | 1011.8 |
| 20260905202009 | 77 | 107 | 2.0 | 0.0 | 0.00 | 0.00 | 0.01 | 69 | 1011.8 |
| 20260905201509 | 76 | 238 | 3.0 | 0.0 | 0.00 | 0.00 | 0.01 | 70 | 1011.8 |
| 20260905201008 | 75 | 166 | 2.0 | 0.0 | 0.00 | 0.00 | 0.01 | 72 | 1012.3 |
| 20260905200510 | 75 | 229 | 2.0 | 0.0 | 0.00 | 0.00 | 0.01 | 69 | 1012.3 |
| 20260905200009 | 75 | 206 | 3.0 | 0.0 | 0.00 | 0.00 | 0.01 | 74 | 1012.3 |
| 20260905195507 | 75 | 211 | 3.0 | 0.0 | 0.00 | 0.00 | 0.01 | 76 | 1012.4 |
| 20260905195009 | 75 | 219 | 3.0 | 0.0 | 0.00 | 0.00 | 0.01 | 76 | 1012.4 |
| 20260905194507 | 75 | 167 | 2.0 | 0.0 | 0.00 | 0.00 | 0.01 | 76 | 1012.4 |
| 20260905194007 | 75 | 155 | 2.0 | 0.0 | 0.00 | 0.00 | 0.01 | 77 | 1012.6 |
| 20260905193506 | 75 | 210 | 3.0 | 0.0 | 0.00 | 0.00 | 0.01 | 75 | 1012.6 |
| 20260905193006 | 75 | 194 | 3.0 | 0.0 | 0.00 | 0.00 | 0.01 | 73 | 1012.6 |
| 20260905192506 | 76 | 175 | 3.0 | 0.0 | 0.00 | 0.00 | 0.01 | 74 | 1012.5 |
| 20260905192006 | 76 | 200 | 3.0 | 0.0 | 0.00 | 0.00 | 0.01 | 73 | 1012.5 |
| 20260905191507 | 77 | 149 | 2.0 | 0.0 | 0.00 | 0.00 | 0.01 | 72 | 1012.5 |
| 20260905191006 | 77 | 158 | 2.0 | 0.0 | 0.00 | 0.00 | 0.01 | 71 | 1012.6 |
| 20260905190505 | 77 | 158 | 2.0 | 0.0 | 0.00 | 0.00 | 0.01 | 72 | 1012.6 |
| 20260905190006 | 77 | 168 | 2.0 | 0.0 | 0.00 | 0.00 | 0.01 | 70 | 1012.6 |
| 20260905185505 | 77 | 194 | 2.0 | 0.0 | 0.00 | 0.00 | 0.01 | 72 | 1012.8 |
| 20260905185005 | 77 | 157 | 2.0 | 0.0 | 0.00 | 0.00 | 0.01 | 69 | 1012.8 |
| 20260905184502 | 77 | 116 | 1.0 | 0.0 | 0.00 | 0.00 | 0.01 | 70 | 1012.8 |
| 20260905184002 | 75 | 136 | 1.0 | 0.0 | 0.00 | 0.00 | 0.01 | 61 | 1012.8 |
| 20260905183600 | 75 | 360 | 1.0 | 0.0 | 0.00 | 0.00 | 0.01 | 77 | 1012.8 |
| 20260905183059 | 75 | 186 | 1.0 | 0.0 | 0.00 | 0.00 | 0.01 | 78 | 1012.8 |
| 20260905182558 | 74 | 139 | 2.0 | 0.0 | 0.00 | 0.00 | 0.01 | 79 | 1012.9 |
| 20260905182057 | 74 | 190 | 2.0 | 0.0 | 0.00 | 0.00 | 0.01 | 79 | 1012.9 |
| 20260905181557 | 74 | 215 | 2.0 | 0.0 | 0.00 | 0.00 | 0.01 | 79 | 1012.9 |
| 20260905181056 | 74 | 192 | 2.0 | 0.0 | 0.00 | 0.00 | 0.01 | 79 | 1012.9 |
| 20260905180557 | 74 | 157 | 2.0 | 0.0 | 0.00 | 0.00 | 0.01 | 78 | 1012.9 |
| 20260905180103 | 74 | 197 | 2.0 | 0.0 | 0.00 | 0.00 | 0.01 | 79 | 1012.9 |
| 20260905175559 | 74 | 157 | 2.0 | 0.0 | 0.00 | 0.00 | 0.01 | 78 | 1012.9 |
| 20260905175055 | 74 | 159 | 2.0 | 0.0 | 0.00 | 0.00 | 0.01 | 79 | 1012.9 |
| 20260905174555 | 73 | 207 | 2.0 | 0.0 | 0.00 | 0.00 | 0.01 | 78 | 1012.9 |
| 20260905174054 | 73 | 187 | 2.0 | 0.0 | 0.00 | 0.00 | 0.01 | 81 | 1012.7 |
| 20260905173551 | 73 | 127 | 1.0 | 0.0 | 0.00 | 0.00 | 0.01 | 80 | 1012.7 |
| 20260905173100 | 72 | 176 | 1.0 | 0.0 | 0.00 | 0.00 | 0.01 | 81 | 1012.7 |
| 20260905172550 | 72 | 223 | 2.0 | 0.0 | 0.00 | 0.00 | 0.01 | 81 | 1012.7 |
| 20260905172050 | 71 | 190 | 2.0 | 0.0 | 0.00 | 0.00 | 0.01 | 82 | 1012.7 |
| 20260905171547 | 71 | 144 | 1.0 | 0.0 | 0.00 | 0.00 | 0.01 | 81 | 1012.7 |
| 20260905171046 | 71 | 217 | 1.0 | 0.0 | 0.00 | 0.00 | 0.01 | 83 | 1012.9 |
| 20260905170546 | 71 | 163 | 2.0 | 0.0 | 0.00 | 0.00 | 0.01 | 83 | 1012.9 |
| 20260905170045 | 71 | 155 | 2.0 | 0.0 | 0.00 | 0.00 | 0.01 | 83 | 1012.9 |
| 20260905165544 | 71 | 153 | 2.0 | 0.0 | 0.00 | 0.00 | 0.01 | 83 | 1012.8 |
| 20260905165045 | 70 | 181 | 1.0 | 0.0 | 0.00 | 0.00 | 0.01 | 85 | 1012.8 |
| 20260905164543 | 70 | 188 | 1.0 | 0.0 | 0.00 | 0.00 | 0.01 | 85 | 1012.8 |
| 20260905164040 | 70 | 161 | 1.0 | 0.0 | 0.00 | 0.00 | 0.01 | 86 | 1012.6 |
| 20260905163540 | 69 | 146 | 1.0 | 0.0 | 0.00 | 0.00 | 0.01 | 86 | 1012.6 |
| 20260905163040 | 69 | 198 | 1.0 | 0.0 | 0.00 | 0.00 | 0.01 | 87 | 1012.6 |
| 20260905162540 | 69 | 168 | 1.0 | 0.0 | 0.00 | 0.00 | 0.01 | 87 | 1012.5 |
| 20260905162038 | 69 | 159 | 1.0 | 0.0 | 0.00 | 0.00 | 0.01 | 88 | 1012.5 |
| 20260905161537 | 68 | 188 | 1.0 | 0.0 | 0.00 | 0.00 | 0.01 | 89 | 1012.5 |
| 20260905161036 | 68 | 127 | 1.0 | 0.0 | 0.00 | 0.00 | 0.01 | 89 | 1012.5 |
| 20260905160534 | 68 | 150 | 0.0 | 0.0 | 0.00 | 0.00 | 0.01 | 90 | 1012.5 |
| 20260905160035 | 67 | 186 | 0.0 | 0.0 | 0.00 | 0.00 | 0.01 | 91 | 1012.5 |
| 20260905155533 | 67 | 186 | 0.0 | 0.0 | 0.00 | 0.00 | 0.01 | 92 | 1012.6 |
| 20260905155032 | 66 | 194 | 1.0 | 0.0 | 0.00 | 0.00 | 0.01 | 92 | 1012.6 |
| 20260905154534 | 66 | 107 | 1.0 | 0.0 | 0.00 | 0.00 | 0.01 | 92 | 1012.6 |
| 20260905154032 | 65 | 44 | 1.0 | 0.0 | 0.00 | 0.00 | 0.01 | 93 | 1012.5 |
| 20260905153527 | 65 | 78 | 2.0 | 0.0 | 0.00 | 0.00 | 0.01 | 94 | 1012.5 |
| 20260905153026 | 64 | 86 | 2.0 | 0.0 | 0.00 | 0.00 | 0.01 | 95 | 1012.5 |
| 20260905152525 | 64 | 355 | 3.0 | 0.0 | 0.00 | 0.00 | 0.01 | 96 | 1012.2 |
| 20260905152027 | 64 | 46 | 3.0 | 0.0 | 0.00 | 0.00 | 0.01 | 96 | 1012.2 |
| 20260905151523 | 63 | 11 | 3.0 | 0.0 | 0.00 | 0.00 | 0.01 | 97 | 1012.2 |
| 20260905151023 | 63 | 355 | 2.0 | 0.0 | 0.00 | 0.00 | 0.01 | 97 | 1012.2 |
| 20260905150521 | 63 | 20 | 3.0 | 0.0 | 0.00 | 0.00 | 0.01 | 97 | 1012.2 |
| 20260905150021 | 62 | 20 | 3.0 | 0.0 | 0.00 | 0.00 | 0.01 | 97 | 1012.2 |
| 20260905145522 | 62 | 14 | 2.0 | 0.0 | 0.00 | 0.00 | 0.01 | 97 | 1012.3 |
| 20260905145020 | 61 | 12 | 2.0 | 0.0 | 0.00 | 0.00 | 0.01 | 97 | 1012.3 |
| 20260905144519 | 61 | 5 | 1.0 | 0.0 | 0.00 | 0.00 | 0.01 | 97 | 1012.3 |
| 20260905144018 | 61 | 71 | 0.0 | 0.0 | 0.00 | 0.00 | 0.01 | 97 | 1012.3 |
| 20260905143519 | 61 | 72 | 0.0 | 0.0 | 0.00 | 0.00 | 0.01 | 97 | 1012.3 |
| 20260905143022 | 61 | 72 | 0.0 | 0.0 | 0.00 | 0.00 | 0.01 | 97 | 1012.3 |
| 20260905142518 | 60 | 72 | 0.0 | 0.0 | 0.00 | 0.00 | 0.01 | 97 | 1012.2 |
| 20260905142021 | 60 | 71 | 0.0 | 0.0 | 0.00 | 0.00 | 0.01 | 97 | 1012.2 |
| 20260905141525 | 60 | 71 | 0.0 | 0.0 | 0.00 | 0.00 | 0.01 | 97 | 1012.2 |
| 20260905141021 | 60 | 71 | 0.0 | 0.0 | 0.00 | 0.00 | 0.01 | 97 | 1011.9 |
| 20260905140520 | 60 | 72 | 0.0 | 0.0 | 0.00 | 0.00 | 0.01 | 97 | 1011.9 |
| 20260905140018 | 59 | 72 | 0.0 | 0.0 | 0.00 | 0.00 | 0.01 | 97 | 1011.9 |
| 20260905135517 | 59 | 71 | 0.0 | 0.0 | 0.00 | 0.00 | 0.01 | 97 | 1011.7 |
| 20260905135017 | 59 | 71 | 0.0 | 0.0 | 0.00 | 0.00 | 0.01 | 97 | 1011.7 |
| 20260905134517 | 59 | 72 | 0.0 | 0.0 | 0.00 | 0.00 | 0.01 | 97 | 1011.7 |
| 20260905134019 | 59 | 72 | 0.0 | 0.0 | 0.00 | 0.00 | 0.01 | 97 | 1011.5 |
| 20260905133516 | 59 | 72 | 0.0 | 0.0 | 0.00 | 0.00 | 0.01 | 97 | 1011.5 |
| 20260905133016 | 59 | 71 | 0.0 | 0.0 | 0.00 | 0.00 | 0.01 | 97 | 1011.5 |
| 20260905132517 | 59 | 71 | 0.0 | 0.0 | 0.00 | 0.00 | 0.01 | 97 | 1011.7 |
| 20260905132017 | 59 | 72 | 0.0 | 0.0 | 0.00 | 0.00 | 0.01 | 97 | 1011.7 |
| 20260905131519 | 59 | 72 | 0.0 | 0.0 | 0.00 | 0.00 | 0.01 | 97 | 1011.7 |
| 20260905131015 | 59 | 71 | 0.0 | 0.0 | 0.00 | 0.00 | 0.01 | 97 | 1011.2 |
| 20260905130515 | 59 | 71 | 0.0 | 0.0 | 0.00 | 0.00 | 0.01 | 97 | 1011.2 |
| 20260905130014 | 59 | 72 | 0.0 | 0.0 | 0.00 | 0.00 | 0.01 | 97 | 1011.2 |
| 20260905125514 | 59 | 71 | 0.0 | 0.0 | 0.00 | 0.00 | 0.01 | 97 | 1011.2 |
| 20260905125015 | 59 | 71 | 0.0 | 0.0 | 0.00 | 0.00 | 0.01 | 97 | 1011.2 |
| 20260905124517 | 59 | 72 | 0.0 | 0.0 | 0.00 | 0.00 | 0.01 | 97 | 1011.2 |
| 20260905124015 | 59 | 71 | 0.0 | 0.0 | 0.00 | 0.00 | 0.01 | 97 | 1011.1 |
| 20260905123514 | 59 | 71 | 0.0 | 0.0 | 0.00 | 0.00 | 0.01 | 97 | 1011.1 |
| 20260905123012 | 59 | 72 | 0.0 | 0.0 | 0.00 | 0.00 | 0.01 | 97 | 1011.1 |
| 20260905122512 | 59 | 71 | 0.0 | 0.0 | 0.00 | 0.00 | 0.01 | 97 | 1011.1 |
| 20260905122012 | 59 | 71 | 0.0 | 0.0 | 0.00 | 0.00 | 0.01 | 97 | 1011.1 |
| 20260905121512 | 59 | 71 | 0.0 | 0.0 | 0.00 | 0.00 | 0.01 | 97 | 1011.1 |
| 20260905121011 | 59 | 72 | 0.0 | 0.0 | 0.00 | 0.00 | 0.01 | 97 | 1011.1 |
| 20260905120514 | 59 | 72 | 0.0 | 0.0 | 0.00 | 0.00 | 0.01 | 96 | 1011.1 |
| 20260905120009 | 60 | 71 | 0.0 | 0.0 | 0.00 | 0.00 | 0.01 | 96 | 1011.1 |
| 20260905115509 | 60 | 71 | 0.0 | 0.0 | 0.00 | 0.00 | 0.01 | 97 | 1011.0 |
| 20260905115012 | 61 | 72 | 0.0 | 0.0 | 0.00 | 0.00 | 0.01 | 97 | 1011.0 |
| 20260905114510 | 61 | 71 | 0.0 | 0.0 | 0.00 | 0.00 | 0.01 | 97 | 1011.0 |
| 20260905114008 | 61 | 71 | 0.0 | 0.0 | 0.00 | 0.00 | 0.01 | 97 | 1011.0 |
| 20260905113509 | 61 | 72 | 0.0 | 0.0 | 0.00 | 0.00 | 0.01 | 97 | 1011.0 |
| 20260905113008 | 61 | 79 | 0.0 | 0.0 | 0.00 | 0.00 | 0.01 | 97 | 1011.0 |
| 20260905112509 | 61 | 79 | 0.0 | 0.0 | 0.00 | 0.00 | 0.01 | 97 | 1011.0 |
| 20260905112007 | 61 | 79 | 0.0 | 0.0 | 0.00 | 0.00 | 0.01 | 97 | 1011.0 |
| 20260905111508 | 60 | 79 | 0.0 | 0.0 | 0.00 | 0.00 | 0.00 | 97 | 1011.0 |
| 20260905111007 | 60 | 79 | 0.0 | 0.0 | 0.00 | 0.00 | 0.00 | 97 | 1011.3 |
| 20260905110506 | 60 | 79 | 0.0 | 0.0 | 0.00 | 0.00 | 0.00 | 97 | 1011.3 |
| 20260905110007 | 60 | 79 | 0.0 | 0.0 | 0.00 | 0.00 | 0.00 | 97 | 1011.3 |
| 20260905105507 | 60 | 79 | 0.0 | 0.0 | 0.00 | 0.00 | 0.00 | 97 | 1011.3 |
| 20260905105008 | 60 | 79 | 0.0 | 0.0 | 0.00 | 0.00 | 0.00 | 96 | 1011.3 |
| 20260905104506 | 60 | 207 | 0.0 | 0.0 | 0.00 | 0.00 | 0.00 | 96 | 1011.3 |
| 20260905104005 | 60 | 207 | 0.0 | 0.0 | 0.00 | 0.00 | 0.00 | 96 | 1011.3 |
| 20260905103505 | 61 | 207 | 0.0 | 0.0 | 0.00 | 0.00 | 0.00 | 96 | 1011.3 |
| 20260905103005 | 61 | 207 | 0.0 | 0.0 | 0.00 | 0.00 | 0.00 | 96 | 1011.3 |
| 20260905102504 | 61 | 207 | 0.0 | 0.0 | 0.00 | 0.00 | 0.00 | 96 | 1011.2 |
| 20260905102004 | 61 | 207 | 0.0 | 0.0 | 0.00 | 0.00 | 0.00 | 96 | 1011.2 |
| 20260905101507 | 61 | 207 | 0.0 | 0.0 | 0.00 | 0.00 | 0.00 | 96 | 1011.2 |
| 20260905101003 | 61 | 207 | 0.0 | 0.0 | 0.00 | 0.00 | 0.00 | 96 | 1011.3 |
| 20260905100503 | 62 | 207 | 0.0 | 0.0 | 0.00 | 0.00 | 0.00 | 96 | 1011.3 |
| 20260905100004 | 62 | 207 | 0.0 | 0.0 | 0.00 | 0.00 | 0.00 | 96 | 1011.3 |
| 20260905095503 | 62 | 207 | 0.0 | 0.0 | 0.00 | 0.00 | 0.00 | 96 | 1011.3 |
| 20260905095005 | 62 | 207 | 0.0 | 0.0 | 0.00 | 0.00 | 0.00 | 96 | 1011.3 |
| 20260905094503 | 62 | 207 | 0.0 | 0.0 | 0.00 | 0.00 | 0.00 | 96 | 1011.3 |
| 20260905094004 | 62 | 207 | 0.0 | 0.0 | 0.00 | 0.00 | 0.00 | 96 | 1011.3 |
| 20260905093502 | 62 | 207 | 0.0 | 0.0 | 0.00 | 0.00 | 0.00 | 96 | 1011.3 |
| 20260905093002 | 62 | 207 | 0.0 | 0.0 | 0.00 | 0.00 | 0.00 | 96 | 1011.3 |
| 20260905092501 | 62 | 207 | 0.0 | 0.0 | 0.00 | 0.00 | 0.00 | 97 | 1011.3 |
| 20260905092001 | 62 | 178 | 0.0 | 0.0 | 0.00 | 0.00 | 0.00 | 97 | 1011.3 |
| 20260905091503 | 62 | 178 | 0.0 | 0.0 | 0.00 | 0.00 | 0.00 | 96 | 1011.3 |
| 20260905091003 | 62 | 188 | 0.0 | 0.0 | 0.00 | 0.00 | 0.00 | 96 | 1011.3 |
| 20260905090600 | 62 | 188 | 0.0 | 0.0 | 0.00 | 0.00 | 0.00 | 96 | 1011.3 |
| 20260905090100 | 62 | 171 | 0.0 | 0.0 | 0.00 | 0.00 | 0.00 | 96 | 1011.3 |
| 20260905085602 | 62 | 171 | 0.0 | 0.0 | 0.00 | 0.00 | 0.00 | 97 | 1011.4 |
| 20260905085058 | 61 | 171 | 0.0 | 0.0 | 0.00 | 0.00 | 0.00 | 96 | 1011.4 |
| 20260905084601 | 61 | 174 | 0.0 | 0.0 | 0.00 | 0.00 | 0.00 | 96 | 1011.4 |
| 20260905084058 | 61 | 174 | 0.0 | 0.0 | 0.00 | 0.00 | 0.00 | 96 | 1011.4 |
| 20260905083558 | 61 | 174 | 0.0 | 0.0 | 0.00 | 0.00 | 0.00 | 96 | 1011.4 |
| 20260905083059 | 61 | 174 | 0.0 | 0.0 | 0.00 | 0.00 | 0.00 | 96 | 1011.4 |
| 20260905082557 | 61 | 174 | 0.0 | 0.0 | 0.00 | 0.00 | 0.00 | 96 | 1011.8 |
| 20260905082057 | 61 | 174 | 0.0 | 0.0 | 0.00 | 0.00 | 0.00 | 96 | 1011.8 |
| 20260905081559 | 61 | 174 | 0.0 | 0.0 | 0.00 | 0.00 | 0.00 | 96 | 1011.8 |
| 20260905081058 | 61 | 174 | 0.0 | 0.0 | 0.00 | 0.00 | 0.00 | 96 | 1011.9 |
| 20260905080556 | 61 | 174 | 0.0 | 0.0 | 0.00 | 0.00 | 0.00 | 96 | 1011.9 |
| 20260905080104 | 61 | 174 | 0.0 | 0.0 | 0.00 | 0.00 | 0.00 | 96 | 1011.9 |
| 20260905075557 | 61 | 174 | 0.0 | 0.0 | 0.00 | 0.00 | 0.00 | 96 | 1011.9 |
| 20260905075056 | 61 | 174 | 0.0 | 0.0 | 0.00 | 0.00 | 0.00 | 96 | 1011.9 |
| 20260905074556 | 61 | 174 | 0.0 | 0.0 | 0.00 | 0.00 | 0.00 | 96 | 1011.9 |
| 20260905074055 | 60 | 174 | 0.0 | 0.0 | 0.00 | 0.00 | 0.00 | 95 | 1011.7 |
| 20260905073559 | 61 | 151 | 0.0 | 0.0 | 0.00 | 0.00 | 0.00 | 96 | 1011.7 |
| 20260905073055 | 61 | 151 | 0.0 | 0.0 | 0.00 | 0.00 | 0.00 | 96 | 1011.7 |
| 20260905072554 | 61 | 151 | 0.0 | 0.0 | 0.00 | 0.00 | 0.00 | 95 | 1011.8 |
| 20260905072053 | 61 | 151 | 0.0 | 0.0 | 0.00 | 0.00 | 0.00 | 95 | 1011.8 |
| 20260905071553 | 61 | 151 | 0.0 | 0.0 | 0.00 | 0.00 | 0.00 | 95 | 1011.8 |
| 20260905071051 | 61 | 288 | 0.0 | 0.0 | 0.00 | 0.00 | 0.00 | 95 | 1011.5 |
| 20260905070551 | 62 | 288 | 0.0 | 0.0 | 0.00 | 0.00 | 0.00 | 95 | 1011.5 |
| 20260905070052 | 62 | 288 | 0.0 | 0.0 | 0.00 | 0.00 | 0.00 | 95 | 1011.5 |
| 20260905065552 | 62 | 288 | 1.0 | 0.0 | 0.00 | 0.00 | 0.01 | 96 | 1011.4 |
| 20260905065050 | 62 | 288 | 1.0 | 0.0 | 0.00 | 0.00 | 0.01 | 96 | 1011.4 |
| 20260905064550 | 62 | 290 | 1.0 | 0.0 | 0.00 | 0.00 | 0.01 | 96 | 1011.4 |
| 20260905064049 | 62 | 269 | 1.0 | 0.0 | 0.00 | 0.00 | 0.01 | 96 | 1011.5 |
| 20260905063549 | 62 | 284 | 1.0 | 0.0 | 0.00 | 0.00 | 0.01 | 96 | 1011.5 |
| 20260905063056 | 62 | 233 | 2.0 | 0.0 | 0.00 | 0.00 | 0.01 | 96 | 1011.5 |
| 20260905062548 | 62 | 282 | 3.0 | 0.0 | 0.00 | 0.00 | 0.01 | 96 | 1011.5 |
| 20260905062049 | 62 | 297 | 2.0 | 0.0 | 0.00 | 0.00 | 0.01 | 96 | 1011.5 |
| 20260905061551 | 62 | 261 | 1.0 | 0.0 | 0.00 | 0.00 | 0.01 | 96 | 1011.5 |
| 20260905061049 | 62 | 209 | 1.0 | 0.0 | 0.00 | 0.00 | 0.01 | 96 | 1011.5 |
| 20260905060548 | 62 | 206 | 1.0 | 0.0 | 0.00 | 0.00 | 0.01 | 95 | 1011.5 |
| 20260905060048 | 62 | 190 | 2.0 | 0.0 | 0.00 | 0.00 | 0.01 | 95 | 1011.5 |
| 20260905055549 | 63 | 243 | 3.0 | 0.0 | 0.00 | 0.00 | 0.01 | 96 | 1011.4 |
| 20260905055049 | 63 | 294 | 3.0 | 0.0 | 0.00 | 0.00 | 0.01 | 96 | 1011.4 |
| 20260905054554 | 62 | 261 | 3.0 | 0.0 | 0.00 | 0.00 | 0.01 | 95 | 1011.4 |
| 20260905054050 | 63 | 304 | 4.0 | 0.0 | 0.00 | 0.00 | 0.01 | 95 | 1011.4 |
| 20260905053547 | 63 | 264 | 3.0 | 0.0 | 0.00 | 0.00 | 0.01 | 95 | 1011.4 |
| 20260905053048 | 63 | 210 | 2.0 | 0.0 | 0.00 | 0.00 | 0.01 | 95 | 1011.4 |
| 20260905052549 | 63 | 261 | 2.0 | 0.0 | 0.00 | 0.00 | 0.01 | 95 | 1011.4 |
| 20260905052049 | 63 | 242 | 2.0 | 0.0 | 0.00 | 0.00 | 0.01 | 95 | 1011.4 |
| 20260905051547 | 63 | 277 | 2.0 | 0.0 | 0.00 | 0.00 | 0.01 | 95 | 1011.4 |
| 20260905051047 | 63 | 260 | 2.0 | 0.0 | 0.00 | 0.00 | 0.01 | 95 | 1011.7 |
| 20260905050547 | 63 | 244 | 1.0 | 0.0 | 0.00 | 0.00 | 0.01 | 95 | 1011.7 |
| 20260905050047 | 63 | 169 | 1.0 | 0.0 | 0.00 | 0.00 | 0.01 | 95 | 1011.7 |
| 20260905045546 | 63 | 161 | 2.0 | 0.0 | 0.00 | 0.00 | 0.01 | 95 | 1011.5 |
| 20260905045046 | 63 | 238 | 2.0 | 0.0 | 0.00 | 0.00 | 0.01 | 95 | 1011.5 |
| 20260905044547 | 63 | 254 | 3.0 | 0.0 | 0.00 | 0.00 | 0.01 | 95 | 1011.5 |
| 20260905044045 | 63 | 267 | 2.0 | 0.0 | 0.00 | 0.00 | 0.01 | 95 | 1011.4 |
| 20260905043546 | 63 | 283 | 2.0 | 0.0 | 0.00 | 0.00 | 0.01 | 95 | 1011.4 |
| 20260905043046 | 63 | 321 | 1.0 | 0.0 | 0.00 | 0.00 | 0.01 | 95 | 1011.4 |
| 20260905042549 | 63 | 284 | 2.0 | 0.0 | 0.00 | 0.00 | 0.01 | 95 | 1011.2 |
| 20260905042045 | 63 | 234 | 2.0 | 0.0 | 0.00 | 0.00 | 0.01 | 95 | 1011.2 |
| 20260905041546 | 63 | 301 | 3.0 | 0.0 | 0.00 | 0.00 | 0.01 | 94 | 1011.2 |
| 20260905041045 | 63 | 255 | 4.0 | 0.0 | 0.00 | 0.00 | 0.01 | 94 | 1011.1 |
| 20260905040545 | 63 | 278 | 3.0 | 0.0 | 0.00 | 0.00 | 0.01 | 94 | 1011.1 |
| 20260905040051 | 63 | 257 | 2.0 | 0.0 | 0.00 | 0.00 | 0.01 | 94 | 1011.1 |
| 20260905035545 | 63 | 285 | 2.0 | 0.0 | 0.00 | 0.00 | 0.01 | 94 | 1010.9 |
| 20260905035045 | 63 | 293 | 3.0 | 0.0 | 0.00 | 0.00 | 0.01 | 94 | 1010.9 |
| 20260905034545 | 63 | 297 | 3.0 | 0.0 | 0.00 | 0.00 | 0.01 | 94 | 1010.9 |
| 20260905034046 | 63 | 275 | 3.0 | 0.0 | 0.00 | 0.00 | 0.01 | 94 | 1011.0 |
| 20260905033544 | 63 | 274 | 3.0 | 0.0 | 0.00 | 0.00 | 0.01 | 93 | 1011.0 |
| 20260905033044 | 63 | 297 | 3.0 | 0.0 | 0.00 | 0.00 | 0.01 | 93 | 1011.0 |
| 20260905032544 | 63 | 263 | 3.0 | 0.0 | 0.00 | 0.00 | 0.01 | 93 | 1010.7 |
| 20260905032044 | 63 | 275 | 3.0 | 0.0 | 0.00 | 0.00 | 0.01 | 93 | 1010.7 |
| 20260905031544 | 63 | 264 | 3.0 | 0.0 | 0.00 | 0.00 | 0.01 | 93 | 1010.7 |
| 20260905031043 | 63 | 252 | 3.0 | 0.0 | 0.00 | 0.00 | 0.01 | 93 | 1010.7 |
| 20260905030543 | 63 | 289 | 3.0 | 0.0 | 0.00 | 0.00 | 0.01 | 93 | 1010.7 |
| 20260905030047 | 63 | 304 | 3.0 | 0.0 | 0.00 | 0.00 | 0.01 | 93 | 1010.7 |
| 20260905025543 | 63 | 316 | 3.0 | 0.0 | 0.00 | 0.00 | 0.01 | 93 | 1010.6 |
| 20260905025043 | 63 | 272 | 3.0 | 0.0 | 0.00 | 0.00 | 0.01 | 93 | 1010.6 |
| 20260905024543 | 63 | 250 | 2.0 | 0.0 | 0.00 | 0.00 | 0.01 | 93 | 1010.6 |
| 20260905024042 | 63 | 257 | 3.0 | 0.0 | 0.00 | 0.00 | 0.01 | 93 | 1010.6 |
| 20260905023542 | 63 | 277 | 4.0 | 0.0 | 0.00 | 0.00 | 0.01 | 93 | 1010.6 |
| 20260905023043 | 64 | 242 | 4.0 | 0.0 | 0.00 | 0.00 | 0.01 | 92 | 1010.6 |
| 20260905022542 | 64 | 266 | 3.0 | 0.0 | 0.00 | 0.00 | 0.01 | 92 | 1010.6 |
| 20260905022042 | 64 | 310 | 2.0 | 0.0 | 0.00 | 0.00 | 0.01 | 91 | 1010.6 |
| 20260905021542 | 64 | 317 | 3.0 | 0.0 | 0.00 | 0.00 | 0.01 | 91 | 1010.6 |
| 20260905021042 | 64 | 298 | 3.0 | 0.0 | 0.00 | 0.00 | 0.01 | 91 | 1010.7 |
| 20260905020542 | 64 | 311 | 3.0 | 0.0 | 0.00 | 0.00 | 0.01 | 91 | 1010.7 |
| 20260905020042 | 64 | 280 | 3.0 | 0.0 | 0.00 | 0.00 | 0.01 | 90 | 1010.7 |
| 20260905015541 | 64 | 274 | 3.0 | 0.0 | 0.00 | 0.00 | 0.01 | 90 | 1010.7 |
| 20260905015042 | 65 | 275 | 3.0 | 0.0 | 0.00 | 0.00 | 0.01 | 89 | 1010.7 |
| 20260905014541 | 65 | 304 | 4.0 | 0.0 | 0.00 | 0.00 | 0.01 | 89 | 1010.7 |
| 20260905014041 | 65 | 312 | 3.0 | 0.0 | 0.00 | 0.00 | 0.01 | 88 | 1010.7 |
| 20260905013545 | 66 | 291 | 3.0 | 0.0 | 0.00 | 0.00 | 0.01 | 87 | 1010.7 |
| 20260905013040 | 66 | 144 | 3.0 | 0.0 | 0.00 | 0.00 | 0.01 | 86 | 1010.7 |
| 20260905012543 | 67 | 279 | 3.0 | 0.0 | 0.00 | 0.00 | 0.01 | 85 | 1010.6 |
| 20260905012041 | 68 | 262 | 2.0 | 0.0 | 0.00 | 0.00 | 0.01 | 84 | 1010.6 |
| 20260905011541 | 68 | 281 | 2.0 | 0.0 | 0.00 | 0.00 | 0.01 | 83 | 1010.6 |
| 20260905011041 | 69 | 286 | 2.0 | 0.0 | 0.00 | 0.00 | 0.01 | 83 | 1010.8 |
| 20260905010541 | 69 | 239 | 2.0 | 0.0 | 0.00 | 0.00 | 0.01 | 83 | 1010.8 |
| 20260905010044 | 69 | 190 | 2.0 | 0.0 | 0.00 | 0.00 | 0.01 | 82 | 1010.8 |
| 20260905005539 | 69 | 160 | 3.0 | 0.0 | 0.00 | 0.00 | 0.01 | 82 | 1010.8 |
| 20260905005038 | 69 | 204 | 3.0 | 0.0 | 0.00 | 0.00 | 0.01 | 81 | 1010.8 |
| 20260905004538 | 70 | 215 | 3.0 | 0.0 | 0.00 | 0.00 | 0.01 | 80 | 1010.8 |
| 20260905004039 | 70 | 263 | 2.0 | 0.0 | 0.00 | 0.00 | 0.01 | 80 | 1010.7 |
| 20260905003540 | 70 | 209 | 3.0 | 0.0 | 0.00 | 0.00 | 0.01 | 80 | 1010.7 |
| 20260905003044 | 70 | 263 | 3.0 | 0.0 | 0.00 | 0.00 | 0.01 | 81 | 1010.7 |
| 20260905002537 | 70 | 217 | 3.0 | 0.0 | 0.00 | 0.00 | 0.01 | 82 | 1010.9 |
| 20260905002037 | 70 | 207 | 3.0 | 0.0 | 0.00 | 0.00 | 0.01 | 81 | 1010.9 |
| 20260905001536 | 70 | 243 | 3.0 | 0.0 | 0.00 | 0.00 | 0.01 | 80 | 1010.9 |
| 20260905001036 | 70 | 172 | 4.0 | 0.0 | 0.00 | 0.00 | 0.01 | 81 | 1010.8 |
| 20260905000537 | 70 | 161 | 3.0 | 0.0 | 0.00 | 0.00 | 0.01 | 79 | 1010.8 |
| 20260905000037 | 71 | 159 | 3.0 | 0.0 | 0.00 | 0.00 | 0.01 | 78 | 1010.8 |
| 20260904235535 | 71 | 190 | 3.0 | 0.0 | 0.00 | 0.00 | 0.01 | 78 | 1010.8 |
| 20260904235038 | 71 | 202 | 3.0 | 0.0 | 0.00 | 0.00 | 0.01 | 78 | 1010.8 |